Location: Bodegraven
(52.0861°N, 4.7568°E)
Time: 05:38:51
(UTC+00:00)

Daily predictions for brighter satellites

Satellite Brightness Start Highest point End
(mag) Time Altitude Azimuth Time Altitude Azimuth Time Altitude Azimuth
SL-16 R/B 3.5 00:12:19 40° ENE 00:12:19 40° ENE 00:17:52 10° N
Cosmos 1943 Rocket 3.5 00:17:16 36° N 00:17:16 36° N 00:20:48 10° NNE
COSMOS 2455 4.1 00:18:59 34° NNW 00:18:59 34° NNW 00:24:24 10° NNE
CZ-2D R/B 4.1 00:17:57 10° NE 00:20:45 21° ENE 00:20:45 21° ENE
USA 229 DEB 4.4 00:19:54 10° NW 00:24:44 47° NW 00:24:44 47° NW
USA 229 4.4 00:20:00 10° NW 00:24:51 48° NW 00:24:51 48° NW
Cosmos 2297 Rocket 3.5 00:23:44 10° NNW 00:28:49 37° NE 00:28:49 37° NE
Resurs 1-4 Rocket 3.8 00:31:44 10° NNE 00:34:53 26° ENE 00:34:53 26° ENE
NOSS 3-1 (A) 4.2 00:31:57 10° NW 00:37:40 62° NW 00:37:40 62° NW
Cosmos 2369 Rocket 3.3 00:41:05 39° N 00:41:05 39° N 00:45:00 10° NNE
CZ-4C R/B 3.5 00:47:10 37° NNW 00:47:33 38° NNW 00:53:46 10° NE
ATLAS 2AS CENTAUR R/B 4.3 00:50:01 10° WNW 00:57:10 35° N 01:03:59 10° ENE
SL-8 Rocket 4.2 01:06:18 10° N 01:12:13 66° NE 01:12:13 66° NE
Cosmos 2218 Rocket 4.1 01:17:32 10° N 01:23:57 70° ENE 01:24:06 69° E
Cosmos 2227 Rocket 2.7 01:20:40 10° NNW 01:25:13 54° N 01:25:13 54° N
Cosmos 2366 rocket 4.1 01:20:08 10° N 01:26:26 69° ENE 01:26:34 69° E
Lacrosse 5 4.2 01:32:48 14° ESE 01:32:48 14° ESE 01:34:36 10° E
USA 234 3.2 01:27:40 10° ESE 01:34:12 81° NNE 01:37:44 30° WNW
ADEOS II 3.0 01:33:25 10° NNE 01:38:24 41° E 01:38:28 41° E
Cosmos 2219 4.2 01:34:21 10° NNW 01:37:45 38° NW 01:37:45 38° NW
CZ-4B R/B 4.3 01:36:10 10° NNE 01:40:47 44° E 01:40:47 44° E
Cosmos 864 Rocket 4.4 01:37:22 10° N 01:43:29 85° NE 01:43:29 85° NE
SL-08 R/B 4.3 01:47:13 42° E 01:47:37 43° ENE 01:52:00 10° N
Cosmos 2181 Rocket 3.8 01:47:57 84° ESE 01:48:00 84° E 01:54:14 10° N
Cosmos 1633 Rocket 4.3 01:45:25 10° N 01:48:58 40° NE 01:48:58 40° NE
Cosmos 1241 Rocket 4.4 01:54:48 76° SSE 01:55:02 77° SE 02:01:29 10° NE
Cosmos 1959 Rocket 4.4 01:49:23 10° NNW 01:55:10 74° WNW 01:55:10 74° WNW
SL-16 R/B 3.3 01:57:26 38° WNW 01:57:26 38° WNW 02:01:41 10° NNW
ATLAS CENTAUR R/B 4.4 01:42:17 15° W 01:58:41 69° NNW 02:05:26 10° ENE
ARIANE 5 R/B 3.9 01:55:48 10° NNE 02:00:23 32° E 02:01:50 27° SE
Cosmos 1943 Rocket 4.2 01:58:47 16° NW 02:00:24 17° NNW 02:04:04 10° NNE
IRS-1D 3.7 01:56:17 10° NNE 02:01:39 68° ESE 02:01:47 67° ESE
CZ-2D R/B 2.4 01:57:23 10° N 02:02:04 60° NNW 02:02:04 60° NNW
AQUA 4.2 01:58:14 10° NNE 02:02:08 59° N 02:02:08 59° N
ATLAS 5 CENTAUR R/B 2.2 02:07:56 55° NNE 02:07:56 55° NNE 02:11:54 10° NE
NPP 3.7 02:03:25 10° NNE 02:08:28 67° NW 02:08:28 67° NW
Cosmos 2297 Rocket 3.4 02:07:46 10° NW 02:10:32 28° NW 02:10:32 28° NW
CBERS-1 3.9 02:08:43 10° NNE 02:13:52 78° ESE 02:13:59 78° SE
Resurs 1-4 Rocket 2.5 02:11:19 10° N 02:15:58 49° NW 02:15:58 49° NW
Cosmos 2082 3.6 02:11:55 10° NNW 02:17:39 89° ENE 02:20:24 33° SSE
Cosmos 1933 4.2 02:18:15 46° E 02:18:15 46° E 02:22:00 10° NNE
Cosmos 2369 Rocket 4.2 02:22:52 15° NW 02:24:51 18° NNW 02:28:36 10° NNE
SJ 16-02 3.6 02:24:03 10° N 02:27:46 26° NE 02:31:27 10° ESE
Meteor 1-25 Rocket 4.3 02:23:52 10° NNW 02:29:45 81° ENE 02:33:00 27° SSE
Gbstr 26 Del rocket 4.4 02:27:26 36° W 02:31:14 86° S 02:38:54 10° ESE
ASTEX 1 4.3 02:28:38 10° NNE 02:33:28 47° E 02:36:22 22° SSE
IRS-P3 4.1 02:28:49 10° NNE 02:34:12 79° ESE 02:35:28 53° S
Cosmos 1697 Rocket 3.2 02:32:34 39° SSE 02:34:15 54° ESE 02:39:44 10° NE
CZ-4C R/B 4.1 02:32:19 10° NW 02:37:47 31° N 02:44:11 10° ENE
H-2A R/B 3.5 02:34:15 10° SE 02:38:19 39° ENE 02:42:29 10° N
Cosmos 1980 Rocket 3.5 02:35:19 19° SSE 02:38:32 34° ESE 02:43:36 10° NE
USA 267 3.3 02:33:35 10° ENE 02:40:07 67° SE 02:42:17 43° SSW
NOSS 2-1 (E) 4.5 02:40:33 32° NNW 02:40:33 32° NNW 02:43:59 10° NE
Cosmos 2221 4.5 02:42:57 18° NW 02:42:57 18° NW 02:44:49 10° NNW
Cosmos 1602 4.1 02:38:56 10° N 02:42:45 61° ENE 02:43:13 55° ESE
NOSS 2-2 (E) 4.4 02:38:19 10° NW 02:43:46 70° SW 02:51:22 10° SSE
Cosmos 2263 Rocket 3.1 02:38:20 10° NNW 02:43:49 48° NE 02:49:18 10° SE
SL-8 R/B 4.0 02:46:01 51° SSE 02:46:01 51° SSE 02:50:11 10° ESE
Cosmos 1818 3.7 02:46:11 53° W 02:47:13 64° NW 02:52:40 10° NE
ATLAS 2AS CENTAUR R/B 3.9 02:42:35 10° NW 02:49:59 44° NNE 02:56:53 10° E
NOSS 2-2 (D) 4.3 02:46:52 10° NW 02:52:13 71° SW 02:59:39 10° SSE
USA 307 3.9 02:52:25 34° SSE 02:52:43 34° SE 02:56:36 10° ENE
Cosmos 1821 Rocket 3.9 02:46:48 10° NNW 02:53:06 69° W 02:56:30 28° S
Cosmos 1470 Rocket 3.4 02:50:07 10° NNW 02:54:33 80° W 02:55:25 57° S
USA 308 3.8 02:55:23 35° SSE 02:55:48 36° SE 02:59:43 10° ENE
Spot 4 Rocket 4.3 02:51:39 10° NNE 02:56:47 64° ESE 02:59:44 25° S
SL-24 R/B 4.3 02:59:51 45° SSW 03:01:08 65° W 03:06:27 10° NNW
Landsat 5 3.9 03:01:49 10° SSE 03:06:18 70° ENE 03:10:46 10° N
Cosmos 1934 Rocket 3.8 03:02:05 10° N 03:08:11 85° W 03:14:15 10° S
Cosmos 1777 Rocket 4.1 03:03:47 10° NNW 03:08:53 52° WSW 03:12:06 22° S
Cosmos 2227 Rocket 3.9 03:05:23 10° NW 03:06:57 17° WNW 03:06:57 17° WNW
Cosmos 1238 Rocket 4.0 03:03:42 10° N 03:10:24 90° WSW 03:16:43 10° S
Cosmos 1782 2.8 03:10:11 38° S 03:11:38 79° E 03:15:42 10° NNE
Cosmos 1656 3.9 03:12:04 38° WSW 03:13:50 53° NW 03:19:15 10° NNE
Lacrosse 5 2.2 03:11:59 36° SSW 03:13:51 59° SE 03:18:51 10° ENE
CZ-2C R/B 3.0 03:12:48 10° NNE 03:16:33 64° ESE 03:18:32 26° S
Meteor 1-20 Rocket 4.4 03:11:34 10° NNW 03:16:47 45° W 03:18:42 32° SW
ADEOS Rocket 3.8 03:10:27 10° SE 03:17:01 56° ENE 03:22:58 10° N
CZ-4B R/B 3.8 03:14:27 10° ESE 03:17:03 24° ENE 03:19:43 10° N
Cosmos 1515 Rocket 3.5 03:15:08 32° SSW 03:17:11 87° W 03:21:40 10° N
USA 234 3.4 03:11:18 10° SSE 03:17:32 47° SW 03:23:50 10° WNW
ADEOS II 2.7 03:13:15 10° N 03:18:05 37° WNW 03:19:23 32° W
CZ-4B R/B 4.3 03:15:07 10° N 03:19:37 34° WNW 03:20:43 30° W
USA 276 2.6 03:21:38 46° SSE 03:21:39 46° SSE 03:24:45 10° E
Nadezhda 3 Rocket 4.0 03:18:39 29° SW 03:21:50 59° WNW 03:27:56 10° N
SL-08 R/B 4.2 03:26:12 28° W 03:26:12 28° W 03:29:38 10° NW
Cosmos 972 Rocket 3.8 03:24:15 32° SW 03:26:28 69° WNW 03:31:25 10° NNE
Cosmos 1356 3.3 03:23:36 10° NNW 03:27:03 67° W 03:28:27 32° S
Cosmos 1633 Rocket 4.5 03:23:40 10° NW 03:26:00 21° WNW 03:26:00 21° WNW
MSX 3.8 03:21:30 10° NNE 03:27:20 86° ESE 03:32:39 12° SSW
Cosmos 44 4.1 03:24:49 19° S 03:27:41 43° ESE 03:32:06 10° NE
CSL-04 DEB 4.4 03:23:36 10° SSE 03:27:55 76° WSW 03:32:19 10° NNW
Timation 1 Rocket 4.4 03:22:32 10° NW 03:28:19 52° WSW 03:34:07 10° S
Cosmos 1328 Rocket 4.0 03:28:50 36° WSW 03:29:55 43° WNW 03:34:12 10° N
Cosmos 1605 Rocket 4.0 03:24:31 10° N 03:30:58 87° WSW 03:37:22 10° S
Meteor 1-11 Rocket 4.4 03:25:16 10° N 03:31:04 58° ENE 03:36:40 10° SSE
IDEFIX/ARIANE 42P 2.6 03:25:56 10° N 03:31:11 66° WNW 03:34:28 23° SW
Cosmos 921 Rocket 4.0 03:27:54 10° S 03:31:52 44° ESE 03:35:51 10° NNE
Cosmos 1933 Rocket 3.7 03:27:40 10° NNW 03:31:54 49° W 03:34:18 23° SSW
Cosmos 2278 3.7 03:28:10 21° SSW 03:32:06 83° ESE 03:37:51 10° NNE
CZ-3B R/B 2.4 03:32:05 36° W 03:33:30 82° NNW 03:43:16 10° ENE
Cosmos 1606 4.3 03:34:14 20° WNW 03:34:14 20° WNW 03:36:45 10° NNW
Cosmos 2228 Rocket 3.2 03:31:12 11° S 03:35:20 77° E 03:39:46 10° NNE
Cosmos 1151 Rocket 3.8 03:37:30 30° W 03:38:25 33° WNW 03:42:22 10° N
ARIANE 5 R/B 2.9 03:34:47 10° N 03:39:39 45° WNW 03:42:10 25° WSW
Cosmos 2369 3.8 03:36:40 25° SW 03:40:04 66° NW 03:45:49 10° NNE
CZ-2D R/B 4.0 03:38:57 10° NNW 03:41:47 15° NW 03:43:23 13° WNW
Cosmos 1937 Rocket 4.2 03:36:46 10° NNW 03:41:52 55° ENE 03:46:54 10° SE
CZ-4C R/B 3.3 03:42:39 18° SSW 03:45:03 44° W 03:48:32 10° NNW
ALOS 4.3 03:42:04 10° NNE 03:46:09 29° E 03:50:12 10° SSE
IRIDIUM 106 4.3 03:41:45 10° N 03:47:01 89° ENE 03:52:15 10° S
Cosmos 1536 3.9 03:45:47 10° N 03:49:46 49° ENE 03:53:44 10° SSE
Cosmos 1869 Rocket 3.4 03:46:34 10° NNW 03:50:56 74° W 03:55:14 10° S
ATLAS 5 CENTAUR R/B 3.3 03:49:28 14° WNW 03:52:31 27° NNW 03:56:53 10° NE
Resurs 1-4 Rocket 4.2 03:53:23 10° NNW 03:55:07 12° NW 03:56:51 10° WNW
Meteor 1-4 Rocket 3.0 03:54:08 10° S 03:57:32 58° E 04:01:00 10° NNE
USA 305 2.9 03:58:51 21° WSW 04:01:35 76° SSE 04:05:51 10° ENE
X-37B 2.2 04:01:25 19° SSW 04:02:26 22° S 04:05:00 10° SE
CZ-2D R/B 4.4 03:59:28 10° N 04:03:09 31° WNW 04:05:24 19° WSW
Cosmos 1689 Rocket 4.0 04:02:39 10° SE 04:05:24 34° ENE 04:08:09 10° N
Cosmos 2100 Rocket 4.3 03:59:09 10° N 04:05:33 74° ENE 04:11:56 10° SSE
USA 306 2.9 04:02:46 20° WSW 04:05:40 78° SSE 04:09:56 10° ENE
SJ 16-02 1.5 04:02:21 10° NNW 04:06:36 49° WSW 04:10:50 10° S
Cosmos 1763 Rocket 4.4 04:02:44 10° S 04:07:52 52° ESE 04:13:02 10° NNE
Cosmos 389 Rocket 3.3 04:06:12 20° WSW 04:08:01 33° WNW 04:11:18 10° N
Cosmos 1727 Rocket 4.1 04:01:42 10° S 04:08:04 85° E 04:14:26 10° N
PSLV R/B 3.4 04:04:19 10° NNE 04:08:33 76° WNW 04:12:43 10° SSW
ASTEX 1 4.4 04:08:01 10° NNW 04:12:16 29° WNW 04:15:51 13° SW
Cosmos 2360 Rocket 4.4 04:08:02 10° SSE 04:12:38 27° ESE 04:17:17 10° NE
H-2A R/B 2.9 04:10:33 10° SSW 04:14:23 29° W 04:18:19 10° NNW
ERS-2 2.6 04:11:44 10° S 04:15:10 37° W 04:18:37 10° NNW
CZ-2C R/B 2.5 04:11:04 10° NNE 04:16:09 74° WNW 04:21:18 10° SSW
NOSS 3-4 (A) 3.9 04:10:43 10° NW 04:17:35 89° NE 04:25:14 10° SE
NOSS 3-4 (C) 3.9 04:10:49 10° NW 04:17:40 88° NE 04:25:21 10° SE
Cosmos 1697 Rocket 3.5 04:14:18 15° WSW 04:18:29 36° NW 04:23:40 10° NNE
Cosmos 192 4.5 04:14:10 10° SW 04:18:55 56° WNW 04:23:47 10° NNE
PAYLOAD A 3.9 04:15:03 10° N 04:19:44 61° WNW 04:24:20 10° SSW
Cosmos 1980 Rocket 2.5 04:17:07 12° SW 04:22:21 53° NW 04:27:55 10° NNE
USA 267 3.5 04:16:42 10° ENE 04:23:12 68° NNW 04:29:37 10° W
FENGYUN 3A 4.2 04:18:24 10° NNE 04:23:46 62° ESE 04:29:07 10° S
SJ-6F 4.4 04:21:18 10° NNE 04:25:27 88° ESE 04:29:33 10° SSW
Cosmos 990 Rocket 4.1 04:21:13 10° NNW 04:26:13 50° WSW 04:31:15 10° S
Cosmos 1459 Rocket 4.0 04:21:11 10° N 04:27:22 87° W 04:33:25 10° S
Cosmos 2263 Rocket 2.7 04:22:30 10° NW 04:27:39 38° WSW 04:32:49 10° S
Meteor 1-10 Rocket 4.3 04:21:56 10° SSW 04:27:40 66° WNW 04:33:34 10° N
Cosmos 2322 Rocket 2.9 04:22:09 10° S 04:27:41 56° ESE 04:33:16 10° NE
CZ-4C R/B 3.7 04:21:18 10° NW 04:27:47 51° NNE 04:35:26 10° ESE
NOSS 3-3 (A) 4.1 04:23:23 10° SW 04:29:16 84° SE 04:36:04 10° NE
NOSS 3-3 (C) 4.0 04:23:34 10° SW 04:29:24 84° SE 04:36:08 10° NE
Cosmos 1812 3.2 04:28:43 10° SW 04:32:20 39° WNW 04:36:00 10° N
Cosmos 468 Rocket 4.1 04:27:09 10° SSW 04:32:27 87° ESE 04:37:46 10° NNE
USA 307 2.9 04:28:36 12° WSW 04:32:32 86° NNW 04:36:49 10° ENE
Cosmos 1844 Rocket 3.1 04:29:09 10° NNW 04:34:48 71° NE 04:40:27 10° SE
Cosmos 1500 4.5 04:31:54 10° NW 04:34:50 21° W 04:37:44 10° SW
SL-16 R/B 2.5 04:29:41 10° SSW 04:35:20 75° ESE 04:41:02 10° NNE
USA 308 2.9 04:31:34 11° WSW 04:35:38 84° NNW 04:39:55 10° ENE
COSMO-SKYMED 1 2.8 04:32:39 10° SSE 04:36:59 75° ENE 04:41:20 10° NNW
SL-4 R/B 4.3 04:35:48 10° SSW 04:39:33 24° SE 04:43:25 10° E
Cosmos 1666 3.3 04:37:23 10° NNW 04:40:54 35° W 04:44:23 10° SSW
Cosmos 540 Rocket 4.4 04:36:07 10° S 04:41:07 52° ESE 04:46:09 10° NNE
ATLAS CENTAUR R/B 3.1 04:30:32 10° WNW 04:41:08 78° NNE 04:45:08 10° ESE
ATLAS 2AS CENTAUR R/B 2.9 04:34:02 10° NW 04:41:41 83° SW 04:48:42 10° SE
Cosmos 1544 3.9 04:43:17 10° N 04:46:51 55° ENE 04:50:23 10° SSE
ERBS 3.0 04:44:01 10° SW 04:47:16 50° SE 04:50:33 10° ENE
CZ-4B R/B 2.3 04:46:35 10° SSW 04:49:16 26° W 04:52:03 10° NW
